GFSMW_con_lsi_114.txt.gz
Lid_Strength_Index
4 3 2 1 1 1 1 0 1 0 2 2 1 1 1 1 0 -0 -0 -1 -1 -1 -0 -0 -0 0 1 1 0 1 1 1 0 2 2 1 0 0 -0 -1 -0 -1 -1
5 5 4 3 3 2 2 1 1 0 0 0 1 0 1 0 0 -0 -0 -1 -1 -0 -0 -0 0 0 1 1 1 1 2 1 1 3 3 5 3 1 0 -0 -0 -0 -1
7 7 6 5 5 4 3 3 2 1 0 -0 0 0 0 0 1 1 1 0 -0 -0 -0 -0 0 0 0 1 1 1 1 3 1 1 2 5 5 3 1 1 0 0 0
8 8 7 7 6 6 5 4 3 2 1 -0 1 1 1 2 1 1 1 0 -0 0 -0 -0 0 0 0 1 1 0 1 1 3 2 1 1 1 5 5 2 1 0 1
8 8 8 8 7 6 7 6 5 4 2 1 0 1 1 1 1 1 1 0 0 0 0 0 0 0 0 1 1 1 1 1 2 2 2 2 2 2 4 5 3 1 0
9 9 8 8 8 7 7 7 7 6 5 4 2 1 1 1 1 1 2 1 1 1 1 0 0 0 0 1 1 1 1 1 1 1 1 2 3 3 3 4 3 3 2
10 10 10 9 9 8 8 8 9 8 7 5 3 1 1 1 2 1 1 2 2 2 1 1 1 1 0 0 0 1 1 1 1 1 1 1 1 1 2 3 3 3 2
10 10 10 10 10 10 9 9 10 10 10 8 6 4 1 1 1 1 1 1 2 1 1 1 1 1 0 0 0 1 1 1 1 1 1 1 1 1 1 2 3 5 4
12 12 11 11 11 12 11 11 12 12 11 8 7 5 2 1 1 1 1 1 1 1 1 1 1 1 1 1 1 1 1 1 1 1 1 1 1 0 1 1 2 3 6
13 13 14 14 13 13 12 12 13 13 12 10 8 6 4 2 1 1 2 1 1 1 1 1 1 1 1 1 1 1 1 1 1 1 1 1 1 1 1 1 1 2 3
15 15 15 15 14 14 15 14 15 13 12 10 7 6 5 1 1 2 1 1 1 1 1 1 1 1 1 1 1 1 1 1 1 1 1 1 1 1 1 1 1 2 2
15 15 15 16 16 16 16 16 15 15 13 11 9 9 10 7 2 2 1 1 1 1 1 1 1 2 2 1 2 2 2 2 2 2 2 2 1 1 1 1 2 2 1
15 15 16 17 17 16 16 17 16 15 13 12 10 9 11 10 9 3 2 2 2 2 2 2 2 2 2 1 1 2 2 1 1 1 2 1 1 1 1 1 2 2 2
16 16 16 17 17 16 17 18 16 15 14 13 13 12 11 12 11 10 9 9 6 4 6 7 9 10 11 10 8 5 4 3 3 2 1 1 1 1 1 2 2 2 2
16 17 17 17 16 16 16 17 17 17 16 15 15 14 12 13 13 13 12 11 11 11 11 12 13 13 14 14 12 8 5 4 3 2 1 0 4 7 7 3 1 2 2
17 17 17 16 16 16 16 17 17 17 16 16 16 15 14 14 14 15 14 15 14 14 14 14 14 14 13 14 13 11 6 7 8 7 7 6 6 7 9 9 10 8 3
16 16 16 16 15 15 14 15 15 16 17 17 17 16 16 16 16 15 16 16 16 15 15 16 15 15 15 14 13 13 11 12 12 12 12 11 9 9 8 8 11 12 14
16 16 15 15 15 14 14 13 14 15 16 17 16 16 16 16 16 16 17 16 17 17 16 16 16 16 16 15 14 14 14 14 14 15 15 14 12 12 12 9 10 13 14
17 17 16 15 15 14 14 14 14 15 15 16 17 16 16 16 16 16 16 16 17 17 17 17 17 17 17 15 15 15 15 15 16 16 16 15 14 14 13 11 12 14 14
17 17 17 16 17 16 14 15 15 15 16 16 16 16 15 15 16 16 16 16 16 16 17 17 17 17 17 16 16 16 16 17 18 17 17 16 16 15 15 14 14 14 15
17 17 17 18 17 16 15 16 17 17 16 15 15 15 14 15 15 15 14 15 15 15 16 16 16 16 16 17 17 17 18 18 18 18 19 18 16 16 16 16 16 16 15
17 17 18 18 17 17 16 17 18 16 16 15 15 15 15 14 14 14 14 15 14 14 14 14 15 14 15 16 16 16 17 17 18 19 18 17 17 17 17 17 17 17 17
16 16 18 18 17 17 16 17 17 16 16 16 16 15 15 15 15 15 15 15 15 15 15 15 15 15 15 15 16 16 16 16 16 17 17 17 18 18 18 18 18 18 18
16 16 16 17 17 16 16 15 15 14 15 15 15 14 14 14 14 14 15 16 16 17 17 17 17 16 16 16 15 15 15 16 15 15 15 16 17 17 18 18 18 18 18
16 16 16 16 16 15 15 14 14 13 13 14 14 14 14 14 14 15 16 15 16 15 16 16 16 17 17 16 16 16 17 16 16 15 14 15 16 16 17 17 17 17 18
16 16 16 15 15 15 15 14 13 13 14 14 14 14 14 14 14 14 14 15 16 16 16 16 15 15 15 15 15 15 15 15 15 15 16 17 17 18 18 18 18 18 18

GFSMW_con_lsi_117.txt.gz
Lid_Strength_Index
4 4 4 3 3 2 1 1 0 -0 0 0 1 1 1 1 0 0 -0 -0 -0 -0 -0 0 0 -0 1 1 0 1 1 1 1 2 2 1 1 1 0 -0 -0 -0 -1
6 5 5 5 4 4 3 2 2 1 0 0 0 0 0 0 0 -0 -0 -0 -0 -0 -0 0 0 0 1 1 1 1 2 1 1 3 3 5 3 1 1 0 -0 -0 -1
7 6 6 6 5 5 4 4 3 2 1 1 0 0 0 0 1 1 1 0 -0 -0 -0 -0 0 0 0 1 1 1 2 3 1 1 3 5 5 3 1 1 1 0 0
7 7 7 7 6 6 5 4 4 4 3 2 1 1 2 2 1 1 1 0 0 0 0 -0 0 0 0 1 1 1 1 2 3 2 1 1 1 4 5 2 1 0 1
8 8 8 8 7 6 6 6 5 5 4 3 2 2 1 1 1 1 1 1 0 0 0 0 0 0 0 0 1 1 1 1 2 2 2 2 2 2 3 5 3 1 1
8 8 8 8 8 8 7 7 7 6 5 5 4 4 3 1 2 2 1 1 1 1 0 0 0 0 1 1 1 1 1 1 1 1 2 2 3 3 4 4 4 4 2
9 9 10 10 10 10 9 9 9 8 7 6 6 5 4 2 2 2 2 1 2 1 1 1 1 1 1 0 0 1 1 1 1 2 2 1 2 1 2 3 4 4 2
10 11 11 11 11 11 11 10 10 9 8 8 7 6 6 3 1 1 1 2 1 1 1 1 1 1 0 1 1 1 1 1 1 1 1 1 1 1 1 2 3 4 4
11 11 11 11 12 12 12 11 12 11 10 10 9 9 7 6 3 1 1 1 1 1 1 1 1 1 1 1 1 1 1 1 1 1 1 1 1 1 1 1 2 3 6
12 12 13 13 13 13 13 12 13 12 12 11 11 10 8 6 3 1 1 1 1 1 1 1 1 1 1 1 1 1 1 1 1 1 1 1 1 1 1 1 1 2 3
13 13 13 14 15 14 15 15 14 13 12 13 11 10 8 6 3 1 1 1 1 1 1 1 1 1 1 1 2 1 1 2 2 1 2 2 1 1 1 1 1 2 2
13 13 14 15 15 15 15 16 15 15 14 13 12 10 8 8 6 4 1 1 1 1 1 1 1 1 1 1 2 2 2 2 2 2 2 2 1 1 1 1 2 2 2
14 14 14 15 15 15 15 16 16 16 15 14 12 11 11 11 12 10 7 7 1 1 4 3 4 4 3 2 2 2 2 2 2 2 2 2 2 2 2 1 2 2 2
15 15 15 15 15 14 15 16 16 16 15 15 14 13 12 12 13 12 12 11 11 11 11 12 12 13 13 11 8 3 3 3 2 2 2 1 1 2 3 2 2 1 2
15 16 16 15 14 14 14 15 15 16 16 16 15 14 13 13 14 14 14 14 14 14 13 12 13 14 14 14 12 7 5 5 4 6 6 6 8 10 10 7 5 5 4
15 16 15 15 15 14 13 13 15 15 16 16 16 16 15 14 14 14 15 15 15 16 16 15 15 14 14 14 13 10 9 10 10 10 10 9 9 10 11 11 11 11 8
16 16 15 15 15 14 13 13 13 14 15 16 16 16 16 16 16 15 15 16 17 16 16 16 16 17 16 15 14 14 13 14 15 14 13 12 12 12 11 9 10 12 13
16 16 15 15 14 13 14 13 13 14 15 15 16 15 15 16 16 16 16 16 17 17 17 17 18 17 17 16 16 15 15 16 16 16 16 15 15 15 13 10 10 12 12
16 16 16 15 15 14 14 14 14 14 15 15 15 16 15 16 16 16 16 16 16 17 17 17 18 17 18 16 16 16 16 17 17 17 16 17 16 15 14 12 12 14 15
16 16 16 16 16 15 15 16 16 16 16 15 15 14 15 15 16 16 16 15 15 16 16 17 16 17 17 16 16 17 17 18 18 17 17 16 16 16 16 16 16 16 16
16 16 17 17 16 16 15 16 16 17 15 14 14 14 14 14 15 15 15 15 15 15 15 16 16 17 16 16 16 16 17 17 18 19 19 18 17 17 17 17 17 18 16
16 16 17 17 16 15 16 17 17 15 15 14 15 14 15 14 14 15 15 15 15 15 16 16 16 16 16 16 16 16 16 16 17 18 17 17 17 17 17 18 17 17 17
15 15 16 16 16 15 15 16 15 14 14 14 14 14 13 14 14 15 17 17 16 16 16 16 16 15 15 16 16 16 16 16 16 16 16 16 16 16 16 16 17 17 17
15 14 15 16 16 15 14 14 13 12 13 13 13 12 13 12 14 14 14 16 17 17 17 16 18 17 16 16 16 16 15 15 14 14 14 15 15 15 15 16 15 15 16
15 15 15 15 15 14 13 12 12 12 12 12 12 12 12 12 12 14 15 15 16 16 17 17 16 18 18 17 16 15 15 13 14 13 13 15 15 16 16 16 16 15 16
14 15 15 15 14 14 13 13 13 12 13 13 12 12 12 12 12 13 13 14 15 15 16 16 16 16 16 16 15 14 14 14 14 13 15 15 15 15 16 16 16 17 17

GFSMW_con_lsi_120.txt.gz
Lid_Strength_Index
5 5 5 5 5 5 5 4 4 3 3 2 1 1 2 2 1 0 0 0 0 0 0 0 1 0 1 1 1 1 2 2 1 2 2 2 1 1 1 0 0 0 -0
6 6 6 6 6 6 5 5 5 5 4 3 2 1 1 1 2 0 0 0 0 0 0 1 1 1 1 1 1 1 2 2 1 3 3 5 4 2 1 1 1 1 0
7 7 7 7 7 7 7 6 6 5 5 5 4 3 1 1 1 3 2 1 0 0 0 0 1 1 1 1 1 1 2 3 2 2 3 6 7 4 2 2 1 1 1
7 7 8 8 8 8 8 7 7 7 6 5 5 5 4 3 2 1 2 1 0 0 0 0 0 1 1 1 1 1 1 2 3 2 1 2 3 5 6 3 2 1 1
8 8 9 9 9 9 9 9 9 9 8 7 6 6 6 4 2 1 1 1 1 0 0 0 1 1 1 1 1 1 1 1 2 2 3 2 2 3 5 6 4 2 1
8 9 9 10 10 10 10 10 10 10 10 9 8 7 7 6 5 4 2 2 1 1 1 1 1 1 1 1 1 1 1 1 1 2 2 3 4 4 4 5 5 4 3
10 10 11 11 11 11 11 11 12 12 11 10 10 9 9 8 7 6 4 2 2 2 1 1 1 1 1 1 1 1 1 1 2 2 2 2 2 2 3 4 4 5 3
10 11 11 12 12 12 12 12 12 12 12 11 10 9 9 8 7 6 5 3 2 1 1 1 1 1 1 1 1 1 1 1 1 2 1 2 2 1 2 3 4 6 5
11 11 11 12 12 12 12 12 13 13 13 12 10 10 9 8 7 6 5 3 1 1 1 1 1 1 1 1 1 1 1 2 1 1 1 2 1 1 1 2 2 4 6
11 12 12 12 12 12 13 13 13 14 14 13 11 10 9 8 7 7 6 5 3 1 1 1 1 1 1 1 1 1 1 1 2 1 2 2 1 1 1 2 2 2 4
12 13 13 13 12 13 13 14 14 15 15 14 12 11 9 8 7 6 4 4 3 1 1 2 1 1 1 1 1 2 1 2 2 1 2 2 1 2 2 2 2 2 3
12 13 14 14 14 14 14 14 15 15 15 14 13 12 11 10 10 9 6 4 2 1 1 1 1 1 1 1 2 2 2 2 2 2 2 2 1 2 1 2 3 3 3
13 14 14 15 15 15 14 15 15 16 15 15 14 13 12 12 12 10 10 9 10 8 9 8 8 8 7 2 1 2 2 2 2 2 2 2 2 2 2 2 2 2 2
15 15 15 15 15 15 14 15 15 15 15 15 15 15 14 13 12 13 12 11 10 11 10 9 10 10 10 10 9 2 2 2 2 2 4 5 5 5 5 4 4 4 4
15 15 15 16 15 15 14 14 14 15 15 15 15 15 15 14 14 14 13 12 13 13 13 13 12 12 12 11 10 10 10 9 9 9 9 11 10 12 11 7 8 7 6
16 16 15 15 15 15 14 13 14 15 15 16 16 15 15 15 15 15 15 15 14 14 14 15 15 15 15 14 13 14 15 14 14 14 13 11 13 12 12 12 13 12 10
16 17 16 16 16 15 15 14 14 14 15 15 16 16 16 16 16 15 15 16 16 16 16 16 16 16 16 16 15 14 15 15 16 16 16 15 15 15 12 12 13 14 14
17 17 17 16 16 15 16 15 14 15 15 15 16 16 16 16 16 16 16 15 16 16 17 17 17 17 17 15 16 16 16 17 18 16 17 17 16 16 14 11 13 15 15
17 17 16 16 16 16 15 15 15 15 15 16 15 15 17 17 16 16 16 15 16 16 17 17 17 17 16 15 15 16 17 18 19 18 17 17 17 16 15 15 15 16 17
17 17 17 16 17 16 15 17 17 16 16 16 16 15 15 17 18 17 17 16 16 16 16 17 17 17 17 16 16 16 18 18 18 18 18 16 17 16 16 18 18 18 18
17 16 17 17 17 17 16 17 17 17 16 15 15 16 16 16 17 17 17 17 16 17 17 17 17 18 18 17 16 16 17 17 18 18 18 17 16 16 16 17 18 18 18
16 16 18 18 17 16 17 17 16 15 15 14 15 14 15 15 15 17 18 18 18 17 18 19 19 19 18 17 17 16 16 16 17 17 17 16 15 16 16 16 16 17 18
16 15 18 18 17 16 16 17 16 15 15 14 14 14 14 15 15 17 17 18 17 18 18 19 20 20 19 18 17 17 16 16 16 16 16 15 15 16 17 17 17 17 17
15 14 15 17 18 16 15 15 14 14 14 14 14 13 14 15 15 15 17 18 18 19 19 18 19 19 18 18 17 17 17 16 15 15 16 16 16 17 17 17 17 18 18
14 14 15 16 16 15 15 14 13 13 13 13 13 13 13 13 14 15 16 17 16 16 18 18 18 19 19 17 15 14 15 15 14 15 16 17 17 17 18 17 17 17 17
14 15 15 16 16 15 15 14 13 13 13 13 13 14 13 13 14 14 14 13 14 14 15 15 16 17 15 15 15 14 14 14 14 16 17 17 17 17 17 18 18 18 18

GFSMW_con_lsi_123.txt.gz
Lid_Strength_Index
7 8 7 7 7 7 7 7 8 7 7 7 6 6 6 4 6 3 3 0 0 0 1 0 2 2 1 2 2 2 2 2 2 3 4 3 2 2 2 2 2 1 1
9 8 8 8 8 8 9 9 9 9 9 8 8 7 6 5 4 5 4 4 1 0 0 1 1 1 1 2 2 2 2 2 2 3 4 6 4 2 2 2 1 1 1
10 9 9 10 10 10 11 10 10 10 10 9 9 8 7 7 6 4 5 5 3 0 0 0 0 1 1 2 1 2 2 3 2 2 4 6 7 5 3 2 2 2 1
10 10 10 11 11 11 11 11 11 11 11 10 11 11 10 9 7 7 5 6 5 4 1 0 0 1 1 1 2 1 2 2 3 2 2 3 4 6 7 3 2 2 2
11 11 12 12 12 12 12 12 12 12 11 12 12 12 12 10 8 8 7 6 6 4 3 1 1 1 1 1 1 1 1 2 2 3 3 3 4 3 5 6 4 3 2
12 12 12 12 12 12 12 13 13 13 12 12 12 13 13 11 10 9 9 8 6 6 4 4 1 1 1 1 1 1 1 1 2 2 2 3 4 4 5 5 5 4 3
13 13 13 13 13 13 13 13 13 13 13 13 13 13 12 12 11 11 9 8 7 6 6 3 2 1 1 1 1 1 1 1 2 2 2 2 2 2 3 4 5 5 4
12 13 13 13 13 13 13 12 13 13 13 13 13 12 12 12 11 10 10 9 8 7 5 5 3 2 1 1 1 1 2 2 1 2 1 2 2 2 2 3 4 6 5
13 13 13 12 12 12 12 12 12 13 13 13 13 12 11 11 10 9 8 8 7 6 5 4 2 2 1 1 1 1 1 1 1 1 1 2 1 1 1 3 3 4 7
13 13 13 13 13 13 12 12 13 14 14 13 13 12 11 10 8 7 7 7 6 6 5 5 3 1 1 1 1 1 1 1 1 1 2 2 1 1 1 2 3 4 4
14 14 14 14 13 13 13 13 14 14 14 14 14 13 11 10 9 9 7 7 6 5 4 4 3 1 1 2 3 2 2 2 2 1 2 2 1 3 2 2 2 4 4
14 15 15 14 14 14 14 14 15 15 15 14 14 14 13 12 11 11 11 9 8 6 4 3 3 1 3 3 4 3 2 3 2 2 2 2 2 2 2 3 2 2 3
15 15 15 15 15 15 15 14 15 16 15 15 14 14 14 14 13 13 12 11 10 9 8 8 8 8 10 8 5 2 2 2 2 2 2 2 2 2 2 3 3 4 3
15 15 15 16 15 15 15 14 15 15 15 15 15 15 15 14 14 13 13 12 12 11 12 12 11 12 12 11 8 4 2 2 2 4 5 7 7 4 3 3 4 4 4
16 16 16 16 16 16 16 15 15 15 15 16 16 16 15 15 14 15 14 14 13 13 13 13 13 12 12 13 12 11 10 10 10 11 13 13 13 13 12 7 7 7 6
17 17 16 17 17 16 17 16 16 16 16 16 17 16 16 15 15 15 15 15 15 15 15 15 15 14 14 13 14 15 16 15 15 15 15 14 14 13 14 14 14 14 10
17 18 18 17 17 17 17 17 16 16 16 16 17 17 17 17 16 15 15 16 16 16 17 16 16 16 16 15 15 15 16 16 17 16 16 16 15 13 12 14 15 15 15
18 18 18 18 17 16 16 16 15 16 16 17 17 17 18 18 17 17 16 16 17 17 17 18 17 17 16 15 15 16 16 18 17 17 18 17 16 16 14 15 16 17 16
18 18 17 17 17 17 16 17 16 16 16 17 17 17 18 19 19 18 18 18 17 18 19 19 18 18 16 15 16 16 17 17 17 17 17 17 17 17 16 16 16 18 19
18 19 18 17 18 17 17 18 17 16 16 16 17 16 16 18 19 19 19 18 18 19 19 20 20 18 19 16 15 15 17 18 17 17 16 16 17 16 16 18 18 20 19
19 18 19 20 19 18 18 18 19 17 17 16 14 15 15 16 17 17 18 19 19 19 20 20 20 20 18 18 16 16 17 17 18 18 17 16 16 16 16 16 18 18 18
19 20 21 21 19 19 19 19 17 18 17 17 17 16 16 16 17 18 18 18 18 18 19 19 20 20 19 17 17 16 16 16 18 18 18 17 17 17 17 18 17 17 17
19 19 21 22 20 18 18 17 17 18 18 16 17 18 17 17 17 18 18 18 18 19 19 19 19 19 17 16 15 15 16 16 17 17 17 16 17 17 18 18 18 19 18
18 17 19 20 20 20 18 17 16 16 18 17 17 16 19 18 18 18 17 18 18 19 19 19 19 18 18 17 15 15 15 15 15 16 16 17 17 18 19 19 19 19 19
18 17 17 17 18 17 18 17 15 15 15 16 16 16 15 17 18 17 17 17 16 16 18 18 18 18 18 17 14 15 16 16 16 17 17 18 18 18 18 18 17 18 19
16 17 17 18 18 17 17 15 15 15 15 15 15 16 16 16 16 16 17 13 14 14 15 15 16 17 15 15 15 15 15 16 16 19 20 21 20 20 20 20 19 18 18

GFSMW_con_lsi_126.txt.gz
Lid_Strength_Index
10 10 10 10 11 11 11 10 10 10 9 9 10 10 10 9 7 6 5 2 3 4 3 0 1 0 1 1 1 2 2 2 1 3 4 4 2 2 2 1 2 1 1
11 11 11 11 11 12 12 11 11 11 10 10 10 10 9 9 9 7 6 5 4 5 5 4 1 1 1 1 2 2 2 2 2 3 4 6 4 3 2 2 2 2 1
12 12 12 12 12 13 13 12 12 12 11 11 11 11 11 10 10 9 9 7 6 6 6 5 4 1 1 1 1 1 2 3 2 2 4 6 7 5 3 2 2 2 2
13 13 13 13 13 13 12 12 12 12 11 11 12 12 13 13 12 11 10 9 7 6 6 6 5 3 1 1 1 1 1 2 3 2 2 3 4 6 7 4 2 2 2
13 13 13 13 13 13 13 13 13 12 12 12 13 13 13 13 13 12 11 10 9 8 7 6 6 4 2 1 1 1 2 1 2 3 3 3 4 4 5 7 4 2 2
13 13 13 13 13 13 12 12 12 12 12 12 12 13 14 14 14 13 13 12 10 9 8 6 5 3 3 3 1 1 1 1 2 2 2 3 4 4 4 5 5 4 3
13 14 14 14 14 13 13 12 12 13 12 13 13 13 13 13 14 13 12 12 12 11 9 8 7 5 4 3 2 1 1 1 2 2 2 2 2 2 3 4 5 5 5
14 14 14 14 14 13 12 11 12 12 12 12 13 12 12 12 12 11 11 11 11 10 9 9 8 7 5 5 4 2 1 1 1 2 3 3 2 1 2 3 5 6 6
15 14 14 13 13 13 12 12 12 12 12 12 12 12 11 11 10 10 10 10 9 9 8 8 7 6 5 5 3 2 1 2 3 2 3 2 2 2 1 2 3 4 7
15 14 13 13 13 13 13 12 13 13 13 13 12 12 12 11 10 9 9 8 7 7 7 7 6 6 6 5 4 2 1 2 3 3 3 2 3 1 2 1 2 4 4
15 14 14 14 14 14 14 13 14 15 15 14 14 13 13 12 12 11 10 10 8 7 6 5 5 5 5 4 3 1 1 2 2 3 2 2 2 2 2 1 2 2 4
15 15 15 15 15 15 15 15 15 15 15 15 14 14 13 13 13 13 11 11 10 10 9 8 8 7 6 5 4 3 2 2 3 3 2 2 1 2 2 2 2 2 2
15 15 16 16 16 16 17 16 16 16 16 16 16 15 15 14 14 14 14 13 13 13 12 11 11 11 10 7 6 4 3 4 4 5 3 2 2 2 2 2 2 2 2
15 16 17 17 17 16 17 17 17 16 16 16 17 17 16 15 15 15 15 15 14 13 13 12 12 11 11 11 10 10 9 9 9 10 11 9 8 5 2 2 2 2 3
16 17 17 17 17 17 17 16 16 16 17 17 18 18 18 16 15 16 16 16 15 15 14 14 13 12 13 13 12 13 13 12 12 12 12 12 12 13 13 6 8 3 3
17 17 17 17 17 17 17 16 16 16 16 17 18 18 18 18 17 16 16 17 17 17 17 16 15 15 13 12 13 12 13 14 14 14 14 13 12 13 15 15 15 15 10
18 18 18 17 17 17 16 17 16 16 17 17 18 19 18 19 18 18 17 18 19 18 18 18 17 16 15 13 13 13 14 14 14 15 15 15 14 14 14 15 15 16 16
18 18 18 18 17 17 17 16 16 16 16 17 17 19 19 20 19 18 19 19 19 20 19 18 18 17 15 14 14 14 15 16 16 17 16 17 17 16 16 15 17 17 17
18 18 18 17 17 17 16 16 16 15 15 16 16 16 18 19 20 20 20 19 20 20 20 20 19 19 16 14 15 16 16 17 17 16 16 17 17 16 16 18 18 19 19
18 19 18 17 18 18 16 18 17 16 16 16 16 16 16 17 18 18 18 19 19 20 20 20 19 17 18 15 15 16 17 18 18 18 17 16 17 17 17 18 18 19 19
19 19 20 21 20 19 18 18 18 18 19 18 16 16 16 17 17 17 18 18 18 18 18 17 17 17 16 16 15 16 18 18 18 19 19 18 17 17 17 17 18 19 17
20 21 21 21 20 19 20 19 19 19 20 21 20 19 18 17 18 18 17 18 18 18 18 18 17 16 16 14 14 14 15 17 19 19 19 19 18 18 18 19 18 18 19
20 20 22 21 21 20 19 19 19 19 19 18 20 23 21 19 19 18 18 18 18 18 18 18 18 18 16 16 15 14 15 15 17 17 17 18 19 19 19 18 19 20 20
19 18 19 21 21 20 18 19 17 17 18 17 17 17 18 19 19 18 17 17 18 19 18 18 18 18 18 17 17 17 17 17 18 18 18 18 17 19 19 19 19 19 19
17 17 18 18 18 17 18 18 17 16 15 17 17 17 16 17 17 16 16 16 16 17 18 18 18 18 19 18 16 17 18 18 18 20 20 21 21 21 20 20 20 20 19
17 18 18 18 18 18 17 16 15 15 16 15 16 17 17 17 17 19 18 14 15 15 15 14 16 18 16 16 16 17 17 17 18 21 23 24 23 23 23 22 22 21 21

GFSMW_con_lsi_129.txt.gz
Lid_Strength_Index
13 13 13 13 13 13 13 12 13 12 11 11 12 11 11 11 9 9 8 6 5 3 3 1 1 3 1 1 1 1 2 2 1 3 3 4 2 2 2 1 1 2 1
14 13 13 13 13 13 13 13 13 12 12 11 12 11 11 11 10 9 8 8 7 6 6 5 3 3 2 1 1 1 2 2 1 3 4 6 4 2 2 2 2 2 2
14 13 13 13 13 14 13 13 12 12 12 12 12 12 12 11 11 11 11 9 9 8 6 5 5 3 3 1 1 1 2 3 2 2 4 6 7 4 3 2 2 2 2
13 13 13 14 14 13 13 13 12 12 11 11 12 13 14 14 13 12 11 11 9 9 8 7 6 5 4 3 1 1 2 2 3 2 2 2 3 6 6 3 2 2 2
13 14 14 14 14 13 13 12 11 12 12 12 12 13 13 13 13 13 12 11 10 10 9 8 6 5 4 4 2 1 2 1 2 3 3 3 3 3 5 6 4 2 1
14 14 14 14 14 13 12 12 12 13 12 12 12 13 13 13 13 12 12 12 11 10 10 9 8 6 4 3 2 2 1 1 2 2 2 3 4 4 4 5 5 4 3
14 15 15 14 14 13 13 13 13 13 13 12 12 12 13 12 12 11 11 11 10 10 9 9 9 9 7 5 6 7 4 1 2 2 2 2 2 2 3 4 4 5 3
15 15 15 14 14 14 13 13 12 13 12 12 12 12 11 11 11 10 10 10 10 9 9 9 9 9 9 8 6 6 5 3 1 2 2 2 2 2 2 3 4 5 5
16 15 14 14 14 13 13 12 13 13 13 13 13 12 11 11 11 10 10 9 9 8 8 8 8 8 8 7 7 6 6 3 1 2 2 2 2 1 2 3 2 4 6
16 15 14 14 14 13 14 13 14 14 14 14 14 14 13 12 11 11 11 11 10 9 9 8 8 7 7 7 6 6 5 4 2 1 2 3 2 2 1 2 2 2 4
16 16 15 14 15 15 15 15 16 16 16 15 15 15 15 14 13 13 13 12 11 10 10 10 9 7 6 5 5 5 5 4 2 2 2 3 3 3 2 2 2 2 2
15 15 16 17 17 16 16 16 16 16 16 16 16 16 16 14 15 14 14 13 12 11 11 10 10 10 9 8 6 4 3 3 2 2 3 3 3 3 3 2 2 3 2
15 16 17 17 17 16 17 16 16 17 17 16 17 17 17 16 16 15 14 14 14 13 12 12 12 12 11 10 8 6 5 7 8 8 9 8 5 3 3 2 2 2 2
16 17 17 17 17 17 17 17 17 17 17 17 18 19 18 17 16 16 17 16 16 16 15 14 14 13 13 12 11 11 10 10 9 10 11 12 13 11 11 7 2 2 3
17 17 17 17 17 16 17 17 16 17 17 18 19 19 19 18 18 18 18 18 17 16 16 15 15 14 14 13 13 12 12 12 12 12 11 10 11 12 12 11 12 11 4
17 17 17 17 17 17 17 16 16 17 17 18 19 19 19 19 18 19 19 19 19 18 17 17 16 16 15 14 13 13 14 13 14 14 13 12 12 12 13 13 14 14 13
17 18 18 17 17 17 17 17 16 16 17 18 19 19 20 20 20 19 19 20 20 19 18 18 17 16 16 14 14 14 14 15 15 15 14 14 14 13 12 13 15 14 16
17 18 18 17 17 17 17 16 15 16 16 16 17 18 19 20 20 20 20 20 20 20 19 19 18 17 16 15 15 15 16 16 15 15 15 15 15 14 14 15 16 16 17
18 20 19 17 18 17 16 16 15 16 16 16 16 16 17 18 19 19 19 19 19 19 19 18 18 18 17 15 16 16 17 17 17 16 16 17 16 14 14 16 18 17 18
18 19 19 18 18 18 16 18 18 17 17 17 16 16 16 17 18 18 18 18 18 18 17 17 16 15 17 14 15 17 18 18 18 18 18 16 17 17 17 19 19 19 19
19 19 20 21 21 20 17 19 20 21 20 18 17 17 17 17 17 18 18 17 17 17 17 17 17 16 15 15 14 14 17 18 19 20 20 19 18 17 18 18 19 20 19
19 22 21 22 22 20 19 19 20 22 21 21 20 20 20 18 19 18 18 18 18 17 17 18 18 17 16 15 15 15 16 16 18 18 18 18 18 19 19 20 20 19 20
19 20 21 21 21 20 21 19 21 20 19 20 21 23 21 20 21 20 19 19 18 18 18 18 19 19 17 17 16 15 16 17 19 18 18 17 17 18 19 19 20 22 22
19 20 19 21 22 23 20 21 20 20 20 20 20 20 20 20 19 19 18 18 19 18 19 19 20 20 19 18 18 18 19 19 20 20 21 21 19 21 21 20 20 21 21
18 18 18 18 19 18 19 20 18 17 17 17 18 18 17 20 20 18 17 18 18 16 18 20 19 20 20 19 17 18 20 20 20 22 22 23 23 24 23 23 23 22 23
17 18 18 18 18 17 17 16 15 15 16 16 17 18 18 18 18 20 21 16 16 15 15 15 17 20 16 16 17 17 17 18 19 23 25 26 25 25 25 25 25 25 25

GFSMW_con_lsi_132.txt.gz
Lid_Strength_Index
14 13 14 14 14 14 14 14 14 14 13 14 14 13 12 12 11 10 9 8 8 6 6 6 5 4 3 3 1 1 2 2 1 2 2 2 1 1 1 1 1 1 1
15 14 14 14 15 14 14 14 14 13 13 13 13 13 12 12 11 10 10 10 8 9 8 8 7 5 5 3 1 1 2 2 1 3 3 5 4 2 2 1 1 1 1
15 15 14 15 15 15 14 13 13 12 12 12 12 12 12 12 12 12 12 11 10 9 9 8 7 7 6 5 3 1 2 3 2 1 3 6 7 4 2 2 1 2 1
14 14 15 15 15 14 13 12 12 12 12 12 12 13 13 14 12 12 11 11 10 10 9 8 8 8 7 6 5 3 1 2 3 2 2 2 3 6 6 3 2 1 2
15 15 15 14 14 13 12 12 11 12 12 12 12 12 13 12 11 11 11 10 10 9 9 8 8 8 6 6 5 4 4 1 2 3 3 3 3 3 5 6 4 2 1
15 15 14 13 13 12 13 13 12 12 12 12 12 12 13 13 13 12 12 10 9 9 8 8 8 8 8 7 5 3 2 2 2 2 2 3 4 4 4 5 5 4 3
15 15 15 15 14 14 14 14 13 14 14 13 13 13 12 12 12 12 11 10 10 9 9 8 8 8 8 7 7 6 6 6 2 2 2 2 2 2 3 4 4 5 3
15 16 15 16 15 15 15 15 15 14 14 13 13 13 12 12 11 11 11 10 10 9 8 7 7 7 7 7 7 7 7 6 6 4 2 2 2 1 2 3 4 6 5
16 16 15 15 15 14 15 14 14 14 14 14 14 14 14 13 13 13 11 10 10 9 8 8 8 7 7 7 7 6 6 5 4 4 2 2 2 1 1 2 2 4 7
16 16 15 15 15 15 15 14 15 15 15 15 15 15 15 14 14 14 13 12 11 11 11 10 9 8 7 6 6 6 6 6 6 5 5 2 1 1 1 2 2 3 4
17 17 16 16 16 15 15 16 16 16 16 16 15 15 16 15 15 15 15 14 13 12 12 11 11 10 9 7 6 6 5 5 5 4 3 2 2 2 2 2 2 3 3
16 16 18 18 18 18 17 16 16 17 17 16 16 17 17 17 16 17 16 15 15 13 12 12 11 11 10 9 8 7 5 4 4 5 3 2 1 2 3 3 3 2 2
15 17 18 18 20 18 16 16 16 17 17 17 17 18 18 17 17 17 16 16 15 14 13 12 12 12 12 11 10 9 9 10 9 10 10 10 9 5 3 3 3 2 2
16 18 18 17 17 16 16 16 17 17 17 18 18 19 19 19 18 18 18 17 16 16 15 14 14 14 14 14 14 13 12 12 11 11 11 11 12 12 11 7 7 3 2
17 17 17 17 16 16 16 16 17 17 17 18 19 20 19 19 19 19 19 18 18 17 16 16 15 15 15 15 15 15 15 15 14 14 13 12 11 12 12 12 13 12 8
17 17 17 17 17 16 16 16 17 17 17 19 19 19 20 20 19 19 19 19 18 18 18 17 17 16 15 15 15 16 16 16 16 15 14 14 13 13 14 14 14 14 14
17 17 17 17 17 17 16 17 16 16 16 17 18 17 18 19 19 19 19 19 19 18 18 19 18 18 17 15 15 16 17 17 16 16 15 15 14 14 14 14 14 14 14
17 17 17 17 17 17 16 15 16 16 16 16 17 17 18 18 18 18 18 18 18 18 18 18 19 18 17 16 16 17 18 18 18 16 17 16 16 15 15 15 16 15 15
19 20 18 17 17 17 16 16 16 16 16 17 17 16 17 18 19 19 19 18 18 18 18 18 17 18 17 15 16 18 18 19 19 18 17 17 16 14 14 17 17 17 16
20 19 18 18 19 18 16 18 18 18 18 17 17 17 16 17 18 18 18 18 17 18 18 18 18 16 17 14 14 16 17 19 20 19 19 16 17 17 17 18 19 19 19
19 19 20 20 21 20 17 20 22 21 21 17 16 17 17 17 18 18 17 17 17 18 18 19 18 18 16 17 15 15 18 19 19 19 19 19 18 18 18 18 20 20 19
20 21 21 21 23 21 19 21 21 22 22 20 19 19 20 18 18 19 19 18 18 18 19 19 19 18 18 16 15 16 17 18 20 20 19 19 17 17 17 19 19 20 21
20 20 21 22 23 21 21 20 22 21 20 20 21 21 21 21 21 22 20 19 19 19 19 19 20 20 18 18 17 16 17 18 21 20 19 18 19 19 20 19 20 21 22
19 20 21 21 22 23 19 21 20 20 19 21 21 21 22 21 22 20 19 20 19 20 20 20 21 20 19 19 19 19 20 20 21 22 22 22 20 23 22 22 22 23 23
18 18 19 18 19 18 19 20 18 17 17 18 18 19 19 22 22 21 21 18 18 17 20 20 20 20 21 19 17 18 20 21 21 23 23 24 24 24 25 25 25 25 24
18 18 18 18 18 17 17 16 15 16 17 17 17 19 19 20 19 21 22 16 15 15 15 15 17 20 16 16 16 17 17 18 19 23 25 26 26 26 26 26 26 26 26

GFSMW_con_lsi_135.txt.gz
Lid_Strength_Index
12 12 12 12 12 12 12 11 11 11 11 11 11 11 11 11 10 9 8 8 8 7 7 6 6 5 4 2 1 1 1 1 1 2 2 2 1 1 0 0 0 -0 -1
12 12 12 12 12 12 12 12 11 10 11 11 11 11 11 10 10 9 9 9 8 8 8 7 6 5 4 4 3 1 2 2 1 3 3 5 3 2 1 1 1 0 -0
13 13 13 13 12 12 12 12 11 11 11 10 11 10 10 9 9 9 9 8 8 8 8 7 7 6 5 5 4 2 1 3 1 1 3 5 6 4 2 1 1 1 0
13 13 13 12 12 12 11 11 11 11 10 10 11 11 12 12 11 10 9 9 8 8 7 7 7 6 6 5 5 4 3 2 3 1 1 1 2 5 6 2 2 1 1
13 13 13 12 12 12 11 11 11 11 11 11 11 11 11 11 10 10 10 9 9 8 8 7 6 6 5 5 5 4 3 2 4 2 2 2 2 2 5 6 4 2 1
13 13 13 12 12 11 11 11 11 12 12 12 12 12 13 12 12 11 11 10 9 8 7 7 7 6 6 6 5 4 4 3 2 3 2 3 3 4 4 5 4 4 2
13 13 12 12 12 12 12 12 12 13 13 13 13 13 13 12 12 11 11 11 10 9 8 8 7 7 6 6 6 6 6 5 4 3 5 2 2 2 2 4 4 5 3
13 13 12 13 13 13 13 13 13 13 13 13 13 13 13 13 12 12 12 12 12 11 10 9 8 7 7 6 6 6 6 5 4 3 5 5 2 1 2 3 4 5 4
13 13 13 13 13 13 12 12 13 13 13 13 14 14 13 13 13 13 13 13 13 12 11 10 9 8 8 7 6 6 6 6 4 3 3 3 3 1 1 1 2 4 6
13 14 13 13 12 12 12 12 12 13 14 14 14 14 14 14 14 14 15 15 14 12 12 11 10 10 8 7 6 6 5 5 4 4 3 4 3 2 1 1 2 2 4
14 14 14 13 13 12 13 13 14 15 15 14 14 15 15 15 16 16 16 15 14 13 12 12 12 12 10 9 8 6 5 5 4 3 3 2 1 3 1 1 2 2 2
13 14 14 14 14 14 14 14 15 15 15 15 15 16 16 16 16 16 16 15 15 14 14 12 12 12 12 11 10 10 10 9 10 9 10 9 6 6 2 2 2 2 2
13 14 14 15 15 15 15 15 15 16 16 16 17 17 18 18 18 17 16 16 16 15 14 13 13 13 13 12 12 12 11 12 12 12 11 12 12 12 9 8 8 3 2
14 15 15 15 15 15 15 15 15 16 16 17 17 18 18 18 18 17 17 16 16 16 15 15 14 14 15 15 14 14 13 12 13 12 13 13 14 14 13 13 13 10 7
14 15 15 15 15 15 15 15 15 16 17 18 18 18 18 18 17 17 17 17 17 17 16 16 16 15 15 15 16 16 16 16 15 15 14 13 12 12 13 14 15 14 10
15 15 15 15 15 15 15 15 15 16 15 16 17 16 16 17 16 16 16 17 17 17 17 17 17 17 16 16 16 16 17 17 17 17 16 15 14 14 14 14 14 14 16
15 16 15 15 15 15 15 16 15 14 15 16 16 16 16 16 16 15 16 16 16 16 16 16 16 16 16 16 16 17 17 17 16 17 17 16 15 15 15 15 15 15 14
16 16 15 16 15 15 15 15 15 15 15 15 15 16 16 17 16 16 16 16 16 16 16 15 15 14 14 15 16 16 16 17 17 16 17 16 16 16 15 16 17 17 16
16 16 16 16 15 15 15 15 15 15 15 15 15 15 16 16 16 17 16 16 16 16 16 16 16 16 15 14 15 15 16 17 18 17 16 16 17 16 16 17 17 17 18
16 17 16 16 16 16 16 17 16 16 16 16 16 15 15 15 16 16 16 15 16 16 16 16 16 16 16 15 15 16 16 17 17 17 16 16 18 17 17 19 19 19 18
17 16 17 17 18 17 16 17 17 18 17 16 15 15 15 16 16 15 15 15 16 16 16 16 16 16 16 16 15 16 17 17 18 18 17 17 17 17 17 18 20 20 18
17 17 18 19 19 17 17 17 18 18 17 17 17 17 16 15 16 16 16 16 16 16 17 17 16 16 15 16 16 16 17 17 19 19 18 18 18 18 18 18 18 19 19
18 18 18 19 19 18 16 17 18 17 17 17 18 17 16 16 16 16 16 16 16 16 17 17 17 17 16 16 17 17 18 19 19 19 19 19 19 19 20 19 20 20 19
18 18 18 19 19 18 16 16 17 16 17 17 17 16 16 16 16 15 15 15 16 17 17 17 17 17 16 16 16 17 18 19 19 19 19 20 19 21 21 20 20 21 21
17 17 17 17 17 16 16 15 15 15 16 16 16 16 16 16 16 16 15 15 15 15 16 17 16 17 17 16 16 17 18 19 20 19 19 20 20 21 21 21 21 21 21
16 16 16 16 16 16 14 14 14 14 15 16 16 16 16 16 16 16 16 15 15 15 15 15 15 16 16 16 17 17 17 18 19 20 20 21 21 21 21 21 22 21 22

GFSMW_con_lsi_138.txt.gz
Lid_Strength_Index
9 9 9 8 8 8 8 8 8 7 8 8 8 7 7 7 6 6 5 5 5 5 5 4 4 3 3 2 1 0 1 1 0 1 2 1 1 1 1 0 -0 -0 -0
8 9 9 8 8 8 8 8 8 8 8 8 7 7 7 6 6 5 5 5 5 5 5 5 5 4 4 3 2 1 1 1 0 2 3 5 3 2 1 0 1 0 -0
9 9 9 9 8 8 8 9 8 8 7 8 8 7 7 7 6 6 6 6 6 6 6 5 5 5 4 4 3 2 1 2 1 1 2 5 6 3 1 1 1 1 0
9 9 9 9 8 8 8 8 8 8 8 8 9 9 10 10 8 8 7 7 7 7 6 6 6 5 4 4 3 3 2 2 2 1 1 1 2 4 5 2 1 1 1
9 9 9 9 8 8 8 8 8 8 8 8 9 9 10 9 9 9 9 9 8 8 8 7 6 6 6 5 4 4 3 2 2 1 2 2 2 2 4 5 3 2 1
9 9 9 9 8 8 7 7 8 8 8 8 9 10 11 11 11 11 11 10 10 9 8 8 7 7 6 6 5 5 5 4 2 1 1 2 4 4 4 4 4 4 2
9 9 9 8 8 8 7 8 8 8 8 9 10 11 11 12 12 12 11 11 11 10 9 9 8 8 7 6 5 5 5 5 5 4 2 1 2 2 2 3 4 4 2
8 8 9 8 8 8 8 8 9 9 9 10 10 10 11 12 12 12 12 11 11 11 11 10 10 10 8 8 6 6 6 5 5 5 4 3 1 1 3 2 3 5 4
8 8 8 9 10 10 9 8 8 9 10 9 10 11 12 12 13 13 13 13 12 12 12 12 11 11 10 9 8 7 6 6 5 5 4 2 1 1 1 1 2 4 6
9 9 9 11 10 10 9 9 9 10 10 10 10 12 12 12 13 13 14 13 13 13 13 12 12 11 11 9 8 5 6 6 5 5 4 3 1 1 0 2 1 2 4
9 11 12 10 11 10 10 11 12 11 11 11 11 12 13 14 14 14 14 14 13 13 13 13 13 13 12 11 10 9 7 8 8 7 7 7 4 1 1 1 2 2 2
9 11 12 12 13 12 13 13 13 13 12 12 12 14 14 14 15 15 14 14 14 14 14 13 13 13 13 13 12 12 11 11 11 11 10 10 8 6 6 4 4 3 3
10 10 11 13 13 13 13 14 14 14 13 14 14 14 14 15 15 15 15 15 15 14 14 14 14 14 14 13 13 13 12 12 12 12 12 12 11 10 9 9 8 8 4
9 10 11 12 12 13 14 14 14 14 14 15 15 15 15 15 15 15 15 15 16 16 15 14 14 15 15 15 14 14 14 13 14 13 12 12 13 13 12 12 11 9 8
10 11 12 12 12 13 13 13 14 14 15 16 15 15 14 14 13 14 14 14 15 16 15 15 15 15 15 15 15 15 15 15 15 14 14 14 13 12 13 13 13 13 12
11 12 12 13 13 13 14 14 14 14 14 15 15 14 13 14 13 13 13 13 13 13 14 13 14 15 15 16 15 15 15 16 16 16 15 15 14 14 14 14 14 15 13
11 12 13 13 13 13 13 14 14 14 13 14 14 14 14 14 14 13 14 13 14 13 13 13 12 13 14 14 14 15 15 16 16 17 16 16 16 14 13 14 14 15 15
12 13 13 13 12 13 13 13 14 13 13 13 13 14 15 15 14 14 14 14 13 14 14 14 13 13 13 14 14 14 13 14 16 17 16 16 17 16 15 14 14 15 16
12 12 13 12 12 13 13 14 14 13 13 13 13 13 14 14 14 14 14 13 13 14 14 14 15 14 14 14 14 13 13 14 15 15 15 16 17 17 16 16 17 15 15
13 14 13 12 14 14 14 15 14 14 14 14 13 13 13 13 14 13 13 13 13 13 14 14 15 15 15 15 15 14 13 15 15 15 15 16 16 16 16 16 17 18 17
14 14 14 15 15 15 15 16 16 16 15 14 14 13 13 13 13 13 12 13 13 13 13 14 14 15 15 15 15 16 15 15 15 16 16 16 17 16 17 16 16 16 15
15 15 15 16 15 15 15 16 17 15 15 15 15 14 14 13 13 13 13 13 13 13 13 13 13 13 13 15 15 16 16 16 16 17 16 17 17 17 17 17 17 17 15
14 14 16 16 16 15 15 16 16 14 15 15 15 15 14 13 12 12 13 13 13 13 13 14 14 14 13 13 15 16 17 17 16 16 17 17 17 17 17 17 17 17 16
14 14 15 16 17 15 14 15 15 14 14 15 15 14 14 13 12 12 12 13 13 13 13 14 14 14 14 15 14 15 15 17 16 16 16 16 17 17 17 17 17 17 17
13 13 14 15 15 15 15 15 14 14 14 14 14 14 14 13 13 13 13 13 14 14 14 14 14 15 16 16 16 16 16 16 17 16 15 16 17 17 17 17 17 17 17
12 13 13 13 14 14 14 14 13 13 13 14 13 13 13 13 13 14 14 15 15 15 15 15 15 14 16 16 16 17 17 17 17 16 17 17 17 18 18 18 18 18 19